SCP
0 0 0 0 0 0 0 0 0 0 -0 -0 0 0 0 0 0 0 0 0 0 0 0 0 0 0 0 0 0 0 0 0 0 0 0 0 0 0 0 0 0 0 0 0
0 0 0 0 0 0 0 0 0 0 0 -0 0 0 0 0 0 0 0 0 0 0 0 0 0 0 0 0 0 0 0 0 0 0 0 0 0 0 0 0 0 0 0 0
0 0 0 0 0 0 0 0 0 0 0 0 0 0 0 0 0 0 0 0 0 0 0 0 0 0 0 0 0 0 0 0 0 0 0 0 0 0 0 0 0 0 0 0
0 0 0 0 0 0 0 0 0 0 0 0 0 0 0 0 0 0 0 0 0 0 0 0 0 0 0 0 0 0 0 0 0 0 0 0 0 0 0 0 0 0 0 0
0 0 0 0 0 0 0 0 0 0 0 0 0 0 0 0 0 0 0 0 0 0 0 0 0 0 0 0 0 0 0 0 0 0 0 0 0 0 0 0 0 0 0 0
0 0 0 0 0 0 0 0 0 0 0 0 0 0 0 0 0 0 0 0 0 0 0 0 0 0 0 0 0 0 0 0 0 0 0 0 0 0 0 0 0 0 0 0
0 0 0 0 0 0 0 0 0 0 0 0 0 0 0 0 0 0 0 0 0 0 0 0 0 0 0 0 0 0 0 0 0 0 0 0 0 0 0 0 0 0 0 0
0 0 0 0 0 0 0 0 0 0 0 0 0 0 0 0 0 0 0 0 0 0 0 0 0 0 0 0 0 0 0 0 0 0 0 0 0 0 0 0 0 0 0 0
0 0 0 0 0 -0 -0 -0 0 0 0 0 0 0 0 0 0 0 0 0 0 0 0 0 0 0 0 0 0 0 0 0 0 0 0 0 0 0 0 0 0 0 0 0
0 0 0 0 0 -0 -0 -0 0 0 0 0 0 0 0 0 0 0 0 0 0 0 0 0 0 0 0 0 0 0 0 0 0 0 0 0 0 0 0 0 0 0 0 0
0 0 0 0 0 0 0 0 0 0 0 0 0 0 0 0 0 0 0 0 0 0 0 0 0 0 0 0 0 0 0 0 0 0 0 0 0 0 0 0 0 0 0 0
0 0 0 0 0 0 0 0 0 0 -0 -0 -0 0 0 0 0 0 0 0 0 0 0 0 0 0 0 0 0 0 0 0 0 0 0 0 0 0 0 0 0 0 0 0
0 0 0 0 0 0 0 0 0 -0 -0 -0 -0 -0 0 0 0 0 0 0 0 0 0 0 0 0 0 0 0 0 0 0 0 0 0 0 0 0 0 0 0 0 0 0
0 0 0 0 0 0 0 0 0 0 -0 -0 -0 -0 -0 0 0 0 0 0 0 0 0 0 0 0 0 0 0 0 0 0 0 0 0 0 0 0 0 0 0 0 0 0
0 0 0 0 0 0 0 0 0 0 0 0 0 -0 -0 -0 0 0 0 0 0 0 0 0 0 0 0 0 0 0 0 0 0 0 0 0 0 0 0 0 0 0 0 0
0 0 0 0 0 0 0 0 0 0 0 0 0 0 0 0 0 0 0 0 0 0 0 0 0 0 0 0 0 0 0 0 0 0 0 0 0 0 0 0 0 0 0 0
0 0 0 0 0 0 0 0 0 0 0 0 0 0 0 0 0 0 0 0 0 0 0 0 0 0 0 0 0 0 0 0 0 0 0 0 0 0 0 0 0 0 0 0
0 0 0 0 0 0 0 0 0 0 0 0 0 0 0 0 0 0 0 0 0 0 0 0 0 0 0 0 0 0 0 0 0 0 0 0 0 0 0 0 0 0 0 0
0 0 0 0 0 0 0 0 0 0 0 0 0 0 0 0 0 0 0 0 0 0 0 0 0 0 0 0 0 0 0 0 0 0 0 0 0 0 0 0 0 0 0 0
0 0 0 0 0 0 0 0 0 0 0 0 0 0 0 0 0 0 0 0 0 0 0 0 0 0 0 0 0 0 0 0 0 0 0 0 0 0 0 0 0 0 0 0
0 0 0 0 0 0 0 0 0 0 0 0 0 0 0 0 0 0 0 0 0 0 0 0 0 0 0 0 0 0 0 0 0 0 0 0 0 0 0 0 0 0 0 0
0 0 0 0 0 0 0 0 0 0 0 0 0 0 0 0 0 0 0 0 0 0 0 0 0 0 0 0 0 0 0 0 0 0 0 0 0 0 0 0 0 0 0 0
0 0 0 0 0 0 0 0 0 0 0 0 0 0 0 0 0 0 0 0 0 0 0 0 0 0 0 0 0 0 0 0 0 0 0 0 0 0 0 0 0 0 0 0
0 0 0 0 0 0 0 0 0 0 0 0 0 0 0 0 0 0 0 0 0 0 0 0 0 0 0 0 0 0 0 0 0 0 0 0 0 0 0 0 0 0 0 0
0 0 0 0 0 0 0 0 0 0 0 0 0 0 0 0 0 0 0 0 0 0 0 0 0 0 0 0 0 0 0 0 0 0 0 0 0 0 0 0 0 0 0 0
0 0 0 0 0 0 0 0 0 0 0 0 0 0 0 0 0 0 0 0 0 0 0 0 0 0 0 0 0 0 0 0 0 0 0 0 0 0 0 0 0 0 0 0
0 0 0 0 0 0 0 0 0 0 0 0 0 0 0 0 0 0 0 0 0 0 0 0 0 0 0 0 0 0 0 0 0 0 0 0 0 0 0 0 0 0 0 0
Wind_Speed
6 5 3 4 5 6 7 8 8 9 9 11 7 6 4 3 3 2 2 2 4 4 4 3 3 3 3 3 2 2 3 3 4 3 2 2 2 2 2 2 2 2 1 1
3 3 4 5 7 7 8 7 7 6 9 7 3 1 1 2 3 4 4 4 4 5 5 5 5 4 4 3 3 3 3 3 3 3 2 2 2 2 2 1 1 1 1 2
4 4 2 7 7 6 5 5 6 8 8 2 1 2 4 3 3 4 5 5 5 6 6 6 5 5 5 4 3 3 3 3 3 3 3 3 2 2 2 2 2 2 2 2
1 1 6 7 2 3 4 5 5 4 3 3 4 4 2 1 3 3 3 3 4 4 4 4 4 4 4 3 3 3 3 2 2 3 3 2 2 3 2 2 2 2 2 2
2 2 7 7 3 3 4 6 3 4 3 2 1 3 3 1 2 3 3 3 4 4 3 3 3 4 4 3 3 3 3 3 2 3 3 3 3 3 2 2 2 2 2 2
3 3 6 6 4 1 2 4 3 2 3 1 3 1 4 3 1 2 1 1 1 2 2 2 3 4 4 4 3 3 3 3 2 3 3 4 4 3 2 2 2 2 1 2
4 5 8 6 3 2 2 6 3 2 3 3 4 5 3 1 1 1 0 0 1 3 3 3 3 4 4 3 4 3 2 2 2 3 3 4 3 2 2 2 2 1 1 2
4 4 8 3 3 4 6 3 2 2 3 4 3 2 1 1 1 1 0 1 1 2 2 2 3 4 3 3 3 2 2 2 2 2 3 3 3 2 2 3 2 1 1 1
8 8 5 3 5 4 2 3 3 3 4 3 2 2 1 1 1 1 1 1 1 2 2 1 2 3 4 3 2 2 2 2 2 2 2 2 3 3 2 2 2 2 2 2
4 7 6 5 4 4 3 4 4 3 3 4 3 3 2 2 2 2 1 2 1 2 2 1 2 2 3 2 2 2 2 2 2 2 2 2 2 3 3 3 3 2 2 3
5 6 5 5 5 5 4 3 2 2 2 4 3 3 3 3 3 2 1 1 2 2 3 3 2 2 2 2 2 2 2 2 2 2 2 2 1 2 3 3 4 4 3 3
7 7 5 6 5 4 3 4 3 2 2 2 4 4 3 3 3 3 2 1 1 2 2 3 2 2 2 2 2 3 2 2 2 2 1 1 1 1 2 3 4 5 4 4
7 4 5 5 4 4 4 4 3 3 4 3 2 3 4 2 2 2 2 2 3 3 3 3 2 2 3 2 3 3 3 3 2 2 2 2 2 2 1 2 2 2 3 4
5 3 4 5 5 4 3 3 2 1 2 2 2 3 3 2 2 2 3 4 3 3 2 3 3 3 3 2 3 4 3 4 3 3 2 2 2 2 2 2 1 2 2 4
6 5 6 4 3 2 1 1 1 1 1 1 1 3 4 4 4 4 3 2 2 2 2 2 3 4 3 3 3 4 3 3 2 2 2 2 2 2 2 2 2 2 2 2
4 3 3 3 3 3 1 1 2 3 3 2 2 3 4 4 3 2 2 2 2 3 4 4 4 5 3 3 3 3 3 4 3 2 2 2 2 2 2 2 2 2 2 2
3 4 4 3 4 4 4 4 4 4 3 3 3 3 3 2 2 1 2 3 3 4 4 4 5 4 3 3 4 3 2 3 4 2 2 2 2 2 2 2 3 3 3 3
5 6 6 5 5 5 3 2 3 3 3 3 2 2 2 3 3 3 3 2 1 2 3 4 4 3 3 3 3 2 2 2 2 2 2 2 2 2 2 3 3 3 2 3
3 3 3 3 3 4 3 3 3 3 2 2 2 2 2 2 3 2 1 1 2 3 4 4 4 2 3 4 3 2 3 2 2 2 2 2 2 2 2 2 2 2 2 2
1 1 2 2 2 2 2 2 2 2 2 2 2 2 1 1 1 1 1 2 3 4 3 2 2 2 3 3 3 2 2 3 2 2 2 2 2 2 2 2 3 3 2 2
1 1 1 1 1 1 2 2 3 2 2 2 3 3 2 2 1 1 1 2 4 3 2 2 1 2 2 1 2 1 2 2 2 2 2 2 2 2 2 3 3 3 3 3
1 1 1 1 1 1 1 2 2 2 2 1 1 1 1 1 1 1 2 3 3 3 1 1 1 2 1 1 1 1 2 2 2 2 2 2 2 3 3 3 3 3 3 3
1 1 1 1 2 1 1 1 2 2 2 2 2 2 2 2 2 2 2 3 2 2 1 1 2 2 2 1 1 1 2 2 2 2 2 2 2 3 3 3 3 3 3 3
0 0 0 0 1 2 1 1 1 1 1 1 2 2 2 1 1 2 2 3 3 2 1 2 2 1 1 0 1 1 1 2 2 2 2 2 2 2 2 2 3 3 3 3
1 1 0 1 1 1 2 1 1 0 1 1 1 1 1 2 2 2 2 2 2 2 1 1 2 1 0 0 1 1 1 2 2 2 2 2 2 2 2 2 2 2 2 3
1 1 1 2 2 2 1 1 1 1 1 1 1 1 1 1 1 1 1 1 1 1 1 1 1 1 1 1 1 1 1 1 1 1 1 1 2 2 2 2 3 2 2 3
0 0 0 1 1 1 1 2 2 2 2 2 2 2 1 1 1 1 1 1 1 1 1 1 1 1 1 1 1 1 1 1 1 1 1 1 2 2 2 3 2 2 2 2
Wind_Direction
239 248 235 232 231 204 202 204 210 238 244 262 258 247 245 231 216 190 186 194 193 189 191 186 180 181 184 189 187 172 168 173 191 192 180 172 183 187 184 181 188 187 184 203
261 259 254 259 251 229 227 223 229 249 260 260 266 222 236 217 198 196 200 205 201 193 189 191 191 189 190 196 194 173 179 195 193 175 170 181 189 177 170 182 188 176 194 202
262 293 316 269 244 223 227 219 201 226 248 261 250 218 212 215 209 209 210 208 206 203 200 200 197 188 191 196 179 173 192 201 191 178 183 197 193 169 181 191 180 191 208 207
222 43 240 246 248 215 227 245 226 246 267 227 226 229 216 193 192 224 219 210 214 209 207 201 189 180 175 166 167 177 189 200 199 185 194 196 187 194 200 190 189 204 214 220
148 224 275 291 279 206 209 263 235 229 257 266 351 26 341 303 222 224 223 212 207 205 196 179 179 172 156 161 169 177 194 206 207 203 199 191 196 204 199 180 190 208 209 204
150 196 243 258 289 270 145 272 286 219 228 194 102 114 265 269 248 260 267 225 171 151 136 157 182 162 156 169 175 199 208 209 209 206 202 199 204 202 191 181 195 201 217 219
182 222 257 261 288 92 154 257 291 215 210 181 194 217 240 220 229 248 249 150 133 141 153 175 171 156 165 177 203 215 203 190 200 207 209 199 194 192 177 176 170 190 226 253
170 211 254 261 123 173 225 266 273 236 217 206 232 261 259 213 205 166 98 68 151 154 161 165 158 156 173 210 218 193 179 186 205 212 208 184 168 177 176 170 166 189 225 270
193 216 238 212 207 230 222 246 251 237 241 209 211 239 243 236 209 182 177 186 172 156 148 154 167 166 189 228 212 185 178 206 219 220 212 180 171 177 180 179 183 201 212 237
244 260 255 253 256 265 244 245 252 236 219 187 201 219 223 211 200 196 210 195 166 141 147 191 200 195 210 219 192 178 194 220 218 206 216 197 184 180 184 195 201 208 218 233
249 270 291 277 251 256 271 276 266 252 210 193 191 214 209 201 195 192 205 209 163 166 183 206 204 219 222 188 176 192 212 219 222 210 206 201 195 201 204 212 210 214 217 215
230 233 220 254 257 253 258 258 243 224 243 227 195 201 196 195 194 183 182 181 174 188 197 205 197 225 240 200 183 193 219 221 212 206 208 200 190 266 268 253 255 253 244 233
233 242 231 259 268 256 245 253 238 219 211 222 218 192 183 192 190 172 174 184 198 210 213 204 197 225 245 219 195 200 216 222 213 202 201 206 198 195 241 304 303 280 268 265
238 231 258 258 259 255 254 258 260 263 232 205 193 176 168 171 177 184 202 214 212 209 214 207 207 232 242 221 206 215 222 226 217 204 202 204 208 206 205 212 261 292 292 274
246 229 236 253 261 266 256 189 168 229 222 239 188 180 176 178 195 215 221 210 190 202 227 222 226 245 236 214 213 221 220 224 216 202 198 201 203 202 201 209 226 256 297 299
255 251 241 234 233 242 233 201 197 215 214 211 205 204 201 197 201 207 203 182 185 220 236 233 239 246 223 206 212 222 227 235 222 201 193 194 195 197 203 214 227 233 245 257
221 241 239 245 243 239 227 214 205 208 212 217 220 208 187 175 182 212 234 227 220 231 235 236 244 246 221 209 208 214 221 232 229 213 199 199 200 207 210 212 223 236 245 243
225 229 223 220 221 222 228 223 209 202 206 217 201 170 170 181 205 226 235 239 251 271 264 256 248 226 219 219 212 207 205 211 211 211 206 205 209 209 212 218 224 234 253 256
242 236 228 218 206 194 198 207 209 209 206 178 171 185 198 211 218 224 214 204 229 257 266 264 265 232 224 227 217 197 198 201 208 212 206 214 218 218 219 221 228 234 238 238
262 246 215 199 181 184 196 200 196 203 205 178 169 169 191 234 229 202 182 221 239 247 252 255 245 234 233 231 219 195 197 197 202 210 209 208 214 222 227 230 230 234 236 233
265 249 207 188 194 200 197 186 179 195 202 173 174 190 209 233 225 193 195 264 278 279 266 263 246 244 233 220 208 189 195 198 200 205 209 213 220 225 229 232 234 237 239 240
277 246 237 208 179 200 204 184 181 180 168 167 180 182 184 227 244 256 244 241 262 285 285 252 252 253 267 203 171 178 193 201 207 207 209 212 218 225 228 232 236 241 241 238
267 255 238 212 192 193 163 166 178 171 172 181 189 193 201 216 210 210 270 274 270 278 282 248 257 261 267 153 171 187 198 204 209 212 214 216 221 225 229 234 239 242 240 238
283 277 255 201 132 129 163 226 207 194 188 195 200 199 194 200 264 250 243 267 273 280 267 265 265 263 259 151 192 204 219 223 216 214 216 221 224 229 235 238 243 245 244 244
211 204 161 114 155 205 217 207 142 158 171 205 228 230 218 199 212 243 258 259 269 293 299 281 278 294 244 207 212 220 229 233 230 215 212 219 226 232 238 240 241 245 246 245
215 226 233 227 225 221 206 177 188 203 192 221 258 254 243 230 221 229 242 254 252 277 296 283 259 248 224 221 235 247 246 259 267 254 236 231 233 235 242 245 244 241 243 245
190 271 283 299 286 230 206 199 206 219 212 209 233 245 227 218 219 233 243 249 243 241 249 260 252 239 231 233 236 243 246 244 250 254 250 245 239 238 243 246 248 248 247 246